Location: Unspecified
(0.0000°N, 0.0000°E)
Time: 20:03:40
(UTC+02:00)

ATLAS V CENTAUR R/B - Visible Passes

Search period start: 05 May 2016 00:00
Search period end: 15 May 2016 00:00
Orbit: 235 x 28702 km, 18.0° (Epoch: 04 May)

Date Brightness Start Highest point End Pass type
(mag) Time Alt. Az. Time Alt. Az. Time Alt. Az.
05 May 6.8 03:45:42 50° ESE 03:45:42 50° ESE 10:33:04 10° ENE visible
06 May 6.3 04:43:16 76° SSW 04:44:33 79° SSE 11:55:28 10° E visible
06 May 5.3 20:38:43 10° W 20:52:20 26° SW 20:56:11 10° SSE visible
07 May 6.5 05:40:37 47° WSW 05:49:42 87° NNW 13:05:38 10° E visible
08 May 7.1 06:37:47 21° W 07:00:29 77° NNW 14:10:47 10° E visible
12 May 7.9 02:05:39 14° E 02:05:39 14° E 02:10:08 10° E visible
13 May 7.2 03:01:53 36° E 03:01:53 36° E 09:23:55 10° ENE visible
14 May 6.6 03:57:54 69° ESE 03:57:54 69° ESE 10:59:34 10° E visible
